Project,Study,Ord_Occ,Event_Num,Cast_ID,Date_Time_UTC,Date_Time_PST,Lat_Dec,Lon_Dec,Sta_ID,Line,Sta,Depth,Pressure,PrQ,Temp1,Temp1Q,Temp2,Temp2Q,TempAve,Salt1,Salt1Q,Salt1_Corr,Salt2,Salt2Q,Salt2_Corr,SaltAve_Corr,Ox1,Ox1Q,Ox1_CruiseCorr,Ox1_StaCorr,Ox2,Ox2Q,Ox2_CruiseCorr,Ox2_StaCorr,OxAve_StaCorr,Ox1uM,Ox1uM_CruiseCorr,Ox1uM_StaCorr,Ox2uM,Ox2uM_CruiseCorr,Ox2uM_StaCorr,OxAveuM_StaCorr,FluorV,FluorQ,EstChl_CruiseCorr,EstChl_StaCorr,ISUSV,ISUSQ,EstNO3_CruiseCorr,EstNO3_StaCorr,SigThetaTS1,SigThetaTS1Q,SigThetaTS2,SigThetaTS2Q,BAT,XMiss,TransQ,pH,pHQ,SPAR,SPARQ,PAR,PARQ,PoT1,PoT2,DynHt,SVA,OxSat1,OxSat2,BTL_Depth,BTL_Temp,SaltB,OxB,OxBuM,Chl-a,Phaeo,NO3,NO2,NH4,PO4,SIL
CalCOFI,2105SH,014,,2105_014d,07-May-2021 01:25:57,06-May-2021 17:25:57,31.08458,-122.66348,090.0 100.0,090.0,100.0,3.000,3.021,,15.0552,,15.0572,,15.0562,32.9758,,32.9770,32.9758,,32.9777,32.9774,5.6003,,5.9229,5.8796,5.6625,,5.9246,5.8664,5.8730,244.152,257.7353,257.1042,246.865,268.8133,256.3659,256.7351,0.0401,,0.0769,0.1140,2.5911,,0.8159,,24.4000,,24.3995,,,,,,,,,,,15.0547,15.0567,-0.0013,352.007,97.270,98.355,,,,,,,,,,,,
CalCOFI,2105SH,014,,2105_014d,07-May-2021 01:26:12,06-May-2021 17:26:12,31.08458,-122.66354,090.0 100.0,090.0,100.0,4.000,4.028,,15.0613,,15.0608,,15.0611,32.9765,,32.9777,32.9765,,32.9784,32.9781,5.5865,,5.9085,5.8654,5.6702,,5.9326,5.8743,5.8699,243.550,257.1060,256.4718,247.202,268.1632,256.7154,256.5936,0.0388,,0.0672,0.1101,2.5905,,0.8159,,24.3991,,24.3993,,,,,,,,,,,15.0607,15.0602,0.0047,352.115,97.042,98.497,4,15.058,32.9734,5.996,261.86,0.089,0.023,0.12,0.029,0.00,0.35,1.85
CalCOFI,2105SH,014,,2105_014d,07-May-2021 01:26:13,06-May-2021 17:26:13,31.08458,-122.66354,090.0 100.0,090.0,100.0,5.000,5.035,,15.0597,,15.0608,,15.0603,32.9765,,32.9777,32.9764,,32.9783,32.9780,5.5710,,5.8923,5.8495,5.6670,,5.9293,5.8710,5.8603,242.875,256.4003,255.7627,247.062,267.4342,256.5702,256.1665,0.0395,,0.0724,0.1122,2.5907,,0.8159,,24.3995,,24.3992,,,,,,,,,,,15.0590,15.0601,0.0082,352.109,96.771,98.441,,,,,,,,,,,,
CalCOFI,2105SH,014,,2105_014d,07-May-2021 01:26:16,06-May-2021 17:26:16,31.08458,-122.66354,090.0 100.0,090.0,100.0,6.000,6.042,,15.0595,,15.0602,,15.0599,32.9764,,32.9776,32.9763,,32.9782,32.9779,5.5971,,5.9195,5.8763,5.6676,,5.9299,5.8716,5.8740,244.014,257.5910,256.9592,247.088,268.6643,256.5972,256.7782,0.0402,,0.0776,0.1143,2.5908,,0.8159,,24.3996,,24.3993,,,,,,,,,,,15.0586,15.0594,0.0118,352.134,97.224,98.450,,,,,,,,,,,,
CalCOFI,2105SH,014,,2105_014d,07-May-2021 01:26:17,06-May-2021 17:26:17,31.08458,-122.66356,090.0 100.0,090.0,100.0,7.000,7.049,,15.0576,,15.0585,,15.0581,32.9765,,32.9777,32.9763,,32.9782,32.9780,5.5855,,5.9074,5.8644,5.6678,,5.9301,5.8718,5.8681,243.505,257.0589,256.4245,247.094,268.1146,256.6034,256.5140,0.0395,,0.0724,0.1122,2.5908,,0.8159,,24.4000,,24.3997,,,,,,,,,,,15.0566,15.0575,0.0153,352.119,97.017,98.449,,,,,,,,,,,,
CalCOFI,2105SH,014,,2105_014d,07-May-2021 01:26:19,06-May-2021 17:26:19,31.08458,-122.66356,090.0 100.0,090.0,100.0,8.000,8.056,,15.0593,,15.0605,,15.0599,32.9765,,32.9777,32.9765,,32.9784,32.9781,5.6122,,5.9353,5.8919,5.6691,,5.9315,5.8731,5.8825,244.671,258.2779,257.6493,247.152,269.3739,256.6635,257.1564,0.0398,,0.0746,0.1131,2.5907,,0.8159,,24.3997,,24.3995,,,,,,,,,,,15.0581,15.0594,0.0189,352.182,97.485,98.476,,,,,,,,,,,,
CalCOFI,2105SH,014,,2105_014d,07-May-2021 01:26:21,06-May-2021 17:26:21,31.08458,-122.66356,090.0 100.0,090.0,100.0,9.000,9.063,,15.0548,,15.0542,,15.0545,32.9768,,32.9780,32.9759,,32.9778,32.9779,5.5968,,5.9192,5.8760,5.6652,,5.9274,5.8692,5.8726,244.001,257.5774,256.9455,246.981,268.6503,256.4862,256.7159,0.0393,,0.0709,0.1116,2.5906,,0.8159,,24.4010,,24.4004,,,,,,,,,,,15.0535,15.0528,0.0224,352.090,97.210,98.395,,,,,,,,,,,,
CalCOFI,2105SH,014,,2105_014d,07-May-2021 01:26:23,06-May-2021 17:26:23,31.08458,-122.66358,090.0 100.0,090.0,100.0,10.000,10.070,,15.0398,,15.0444,,15.0421,32.9762,,32.9774,32.9756,,32.9775,32.9775,5.5879,,5.9099,5.8669,5.6686,,5.9309,5.8726,5.8698,243.611,257.1697,256.5359,247.131,268.2291,256.6418,256.5889,0.0398,,0.0746,0.1131,2.5903,,0.8159,,24.4038,,24.4023,,,,,,,,,,,15.0383,15.0429,0.0260,351.847,97.025,98.436,,,,,,,,,,,,
CalCOFI,2105SH,014,,2105_014d,07-May-2021 01:26:25,06-May-2021 17:26:25,31.08458,-122.66360,090.0 100.0,090.0,100.0,11.000,11.077,,15.0166,,15.0151,,15.0159,32.9759,,32.9771,32.9740,,32.9759,32.9765,5.5848,,5.9067,5.8637,5.6717,,5.9341,5.8758,5.8698,243.475,257.0276,256.3930,247.262,268.0822,256.7776,256.5853,0.0395,,0.0724,0.1122,2.5901,,0.8159,,24.4086,,24.4075,,,,,,,,,,,15.0150,15.0135,0.0295,351.425,96.926,98.430,11,14.914,,,257.65,0.100,0.026,0.00,0.00,0.00,0.35,1.64
CalCOFI,2105SH,014,,2105_014d,07-May-2021 01:26:27,06-May-2021 17:26:27,31.08458,-122.66360,090.0 100.0,090.0,100.0,12.000,12.084,,15.0113,,15.0161,,15.0137,32.9746,,32.9758,32.9751,,32.9770,32.9764,5.6133,,5.9365,5.8930,5.6651,,5.9273,5.8691,5.8811,244.715,258.3239,257.6955,246.977,269.4214,256.4821,257.0888,0.0395,,0.0724,0.1122,2.5896,,0.8159,,24.4088,,24.4081,,,,,,,,,,,15.0095,15.0143,0.0331,351.433,97.409,98.319,,,,,,,,,,,,
CalCOFI,2105SH,014,,2105_014d,07-May-2021 01:26:28,06-May-2021 17:26:28,31.08457,-122.66360,090.0 100.0,090.0,100.0,13.000,13.091,,14.9984,,15.0117,,15.0051,32.9757,,32.9769,32.9739,,32.9758,32.9764,5.5973,,5.9198,5.8765,5.6696,,5.9320,5.8737,5.8751,244.017,257.5942,256.9623,247.171,268.6675,256.6833,256.8228,0.0392,,0.0701,0.1113,2.5893,,0.8159,,24.4125,,24.4082,,,,,,,,,,,14.9964,15.0098,0.0366,351.111,97.107,98.387,,,,,,,,,,,,
CalCOFI,2105SH,014,,2105_014d,07-May-2021 01:26:30,06-May-2021 17:26:30,31.08458,-122.66360,090.0 100.0,090.0,100.0,14.000,14.098,,14.9796,,14.9805,,14.9801,32.9751,,32.9763,32.9732,,32.9751,32.9757,5.6149,,5.9382,5.8947,5.6755,,5.9381,5.8797,5.8872,244.784,258.3960,257.7680,247.429,269.4959,256.9508,257.3594,0.0391,,0.0694,0.1110,2.5890,,0.8159,,24.4161,,24.4144,,,,,,,,,,,14.9776,14.9784,0.0401,350.795,97.376,98.428,,,,,,,,,,,,
CalCOFI,2105SH,014,,2105_014d,07-May-2021 01:26:32,06-May-2021 17:26:32,31.08457,-122.66361,090.0 100.0,090.0,100.0,15.000,15.105,,14.9435,,14.9455,,14.9445,32.9739,,32.9751,32.9720,,32.9739,32.9745,5.6137,,5.9369,5.8934,5.6769,,5.9395,5.8811,5.8873,244.732,258.3416,257.7134,247.484,269.4397,257.0078,257.3606,0.0394,,0.0716,0.1119,2.5884,,0.8159,,24.4230,,24.4211,,,,,,,,,,,14.9413,14.9432,0.0437,350.168,97.285,98.382,,,,,,,,,,,,
CalCOFI,2105SH,014,,2105_014d,07-May-2021 01:26:34,06-May-2021 17:26:34,31.08456,-122.66362,090.0 100.0,090.0,100.0,16.000,16.112,,14.9283,,14.9277,,14.9280,32.9729,,32.9741,32.9718,,32.9737,32.9739,5.5917,,5.9139,5.8708,5.6742,,5.9367,5.8783,5.8746,243.772,257.3380,256.7050,247.366,268.4029,256.8855,256.7953,0.0390,,0.0686,0.1107,2.5880,,0.8159,,24.4255,,24.4248,,,,,,,,,,,14.9259,14.9254,0.0472,349.956,96.874,98.300,,,,,,,,,,,,
CalCOFI,2105SH,014,,2105_014d,07-May-2021 01:26:35,06-May-2021 17:26:35,31.08456,-122.66364,090.0 100.0,090.0,100.0,17.000,17.119,,14.8965,,14.8956,,14.8961,32.9729,,32.9741,32.9697,,32.9716,32.9729,5.6153,,5.9386,5.8951,5.6811,,5.9439,5.8853,5.8902,244.800,258.4127,257.7848,247.667,269.5132,257.1976,257.4912,0.0397,,0.0739,0.1128,2.5876,,0.8159,,24.4324,,24.4302,,,,,,,,,,,14.8940,14.8931,0.0507,349.332,97.221,98.356,,,,,,,,,,,,
CalCOFI,2105SH,014,,2105_014d,07-May-2021 01:26:37,06-May-2021 17:26:37,31.08456,-122.66364,090.0 100.0,090.0,100.0,18.000,18.126,,14.8445,,14.8458,,14.8452,32.9711,,32.9723,32.9689,,32.9708,32.9716,5.6132,,5.9364,5.8929,5.6895,,5.9526,5.8939,5.8934,244.707,258.3155,257.6871,248.033,269.4127,257.5771,257.6321,0.0403,,0.0784,0.1146,2.5872,,0.8159,,24.4422,,24.4402,,,,,,,,,,,14.8419,14.8432,0.0542,348.423,97.083,98.403,,,,,,,,,,,,
CalCOFI,2105SH,014,,2105_014d,07-May-2021 01:26:39,06-May-2021 17:26:39,31.08456,-122.66364,090.0 100.0,090.0,100.0,19.000,19.133,,14.8413,,14.8420,,14.8417,32.9703,,32.9715,32.9692,,32.9711,32.9713,5.6057,,5.9285,5.8852,5.6931,,5.9563,5.8975,5.8914,244.376,257.9695,257.3394,248.186,269.0553,257.7358,257.5376,0.0403,,0.0784,0.1146,2.5869,,0.8159,,24.4423,,24.4413,,,,,,,,,,,14.8385,14.8392,0.0577,348.441,96.945,98.457,,,,,,,,,,,,
CalCOFI,2105SH,014,,2105_014d,07-May-2021 01:26:41,06-May-2021 17:26:41,31.08456,-122.66364,090.0 100.0,090.0,100.0,20.000,20.140,,14.8417,,14.8424,,14.8421,32.9705,,32.9717,32.9695,,32.9714,32.9716,5.5573,,5.8779,5.8354,5.6825,,5.9453,5.8868,5.8611,242.267,255.7647,255.1241,247.726,266.7775,257.2588,256.1915,0.0403,,0.0784,0.1146,2.5866,,0.8159,,24.4424,,24.4415,,,,,,,,,,,14.8387,14.8395,0.0612,348.466,96.109,98.275,,,,,,,,,,,,
CalCOFI,2105SH,014,,2105_014d,07-May-2021 01:26:42,06-May-2021 17:26:42,31.08456,-122.66366,090.0 100.0,090.0,100.0,21.000,21.147,,14.8412,,14.8420,,14.8416,32.9705,,32.9717,32.9697,,32.9716,32.9717,5.5984,,5.9209,5.8777,5.6876,,5.9506,5.8919,5.8848,244.058,257.6370,257.0054,247.946,268.7118,257.4869,257.2462,0.0404,,0.0791,0.1149,2.5863,,0.8159,,24.4425,,24.4418,,,,,,,,,,,14.8381,14.8389,0.0647,348.481,96.819,98.362,,,,,,,,,,,,
CalCOFI,2105SH,014,,2105_014d,07-May-2021 01:26:44,06-May-2021 17:26:44,31.08456,-122.66366,090.0 100.0,090.0,100.0,22.000,22.154,,14.8374,,14.8384,,14.8379,32.9706,,32.9718,32.9697,,32.9716,32.9717,5.5971,,5.9195,5.8763,5.6929,,5.9561,5.8973,5.8868,244.000,257.5764,256.9445,248.177,268.6492,257.7265,257.3355,0.0409,,0.0828,0.1164,2.5861,,0.8159,,24.4435,,24.4426,,,,,,,,,,,14.8341,14.8351,0.0683,348.418,96.788,98.447,,,,,,,,,,,,
CalCOFI,2105SH,014,,2105_014d,07-May-2021 01:26:46,06-May-2021 17:26:46,31.08456,-122.66367,090.0 100.0,090.0,100.0,23.000,23.161,,14.8342,,14.8350,,14.8346,32.9705,,32.9717,32.9698,,32.9717,32.9717,5.6197,,5.9432,5.8996,5.6912,,5.9543,5.8956,5.8976,244.989,258.6103,257.9834,248.106,269.7173,257.6529,257.8182,0.0413,,0.0858,0.1176,2.5859,,0.8159,,24.4441,,24.4434,,,,,,,,,,,14.8308,14.8316,0.0718,348.386,97.174,98.412,,,,,,,,,,,,
CalCOFI,2105SH,014,,2105_014d,07-May-2021 01:26:48,06-May-2021 17:26:48,31.08456,-122.66368,090.0 100.0,090.0,100.0,24.000,24.168,,14.8324,,14.8331,,14.8328,32.9706,,32.9718,32.9700,,32.9719,32.9719,5.6001,,5.9227,5.8794,5.6916,,5.9548,5.8960,5.8877,244.131,257.7133,257.0821,248.119,268.7907,257.6664,257.3743,0.0407,,0.0813,0.1158,2.5858,,0.8159,,24.4446,,24.4440,,,,,,,,,,,14.8288,14.8296,0.0753,348.368,96.831,98.414,,,,,,,,,,,,
CalCOFI,2105SH,014,,2105_014d,07-May-2021 01:26:49,06-May-2021 17:26:49,31.08456,-122.66368,090.0 100.0,090.0,100.0,25.000,25.175,,14.8319,,14.8326,,14.8323,32.9708,,32.9720,32.9702,,32.9721,32.9721,5.5937,,5.9160,5.8728,5.6943,,5.9576,5.8988,5.8858,243.856,257.4259,256.7932,248.241,268.4937,257.7928,257.2930,0.0408,,0.0821,0.1161,2.5856,,0.8159,,24.4449,,24.4443,,,,,,,,,,,14.8282,14.8289,0.0788,348.371,96.721,98.461,,,,,,,,,,,,
CalCOFI,2105SH,014,,2105_014d,07-May-2021 01:26:51,06-May-2021 17:26:51,31.08456,-122.66368,090.0 100.0,090.0,100.0,26.000,26.182,,14.8298,,14.8303,,14.8301,32.9710,,32.9722,32.9705,,32.9724,32.9723,5.5814,,5.9031,5.8602,5.6917,,5.9549,5.8961,5.8782,243.316,256.8613,256.2260,248.127,267.9105,257.6747,256.9504,0.0407,,0.0813,0.1158,2.5854,,0.8159,,24.4456,,24.4451,,,,,,,,,,,14.8259,14.8265,0.0823,348.338,96.503,98.412,,,,,,,,,,,,
CalCOFI,2105SH,014,,2105_014d,07-May-2021 01:26:53,06-May-2021 17:26:53,31.08456,-122.66369,090.0 100.0,090.0,100.0,27.000,27.189,,14.8269,,14.8280,,14.8275,32.9712,,32.9724,32.9707,,32.9726,32.9725,5.6128,,5.9360,5.8925,5.6883,,5.9513,5.8927,5.8926,244.687,258.2946,257.6661,247.978,269.3911,257.5201,257.5931,0.0408,,0.0821,0.1161,2.5853,,0.8159,,24.4463,,24.4457,,,,,,,,,,,14.8229,14.8240,0.0858,348.295,97.041,98.348,,,,,,,,,,,,
CalCOFI,2105SH,014,,2105_014d,07-May-2021 01:26:55,06-May-2021 17:26:55,31.08456,-122.66370,090.0 100.0,090.0,100.0,28.000,28.196,,14.8242,,14.8249,,14.8246,32.9708,,32.9720,32.9702,,32.9721,32.9721,5.6062,,5.9291,5.8857,5.6918,,5.9550,5.8962,5.8910,244.399,257.9935,257.3636,248.129,269.0801,257.6767,257.5202,0.0431,,0.0992,0.1229,2.5851,,0.8159,,24.4467,,24.4461,,,,,,,,,,,14.8200,14.8207,0.0893,348.295,96.921,98.401,,,,,,,,,,,,
CalCOFI,2105SH,014,,2105_014d,07-May-2021 01:26:57,06-May-2021 17:26:57,31.08454,-122.66372,090.0 100.0,090.0,100.0,29.000,29.203,,14.8197,,14.8205,,14.8201,32.9717,,32.9729,32.9710,,32.9729,32.9729,5.5594,,5.8801,5.8375,5.6980,,5.9614,5.9025,5.8700,242.358,255.8599,255.2197,248.401,266.8758,257.9588,256.5893,0.0430,,0.0985,0.1226,2.5850,,0.8159,,24.4483,,24.4476,,,,,,,,,,,14.8154,14.8162,0.0928,348.165,96.104,98.501,,,,,,,,,,,,
CalCOFI,2105SH,014,,2105_014d,07-May-2021 01:26:58,06-May-2021 17:26:58,31.08454,-122.66372,090.0 100.0,090.0,100.0,30.000,30.210,,14.8081,,14.8087,,14.8084,32.9728,,32.9740,32.9719,,32.9738,32.9739,5.6015,,5.9241,5.8809,5.6972,,5.9606,5.9017,5.8913,244.193,257.7782,257.1472,248.364,268.8576,257.9204,257.5338,0.0428,,0.0970,0.1220,2.5849,,0.8159,,24.4517,,24.4509,,,,,,,,,,,14.8036,14.8043,0.0963,347.872,96.810,98.464,,,,,,,,,,,,
CalCOFI,2105SH,014,,2105_014d,07-May-2021 01:27:00,06-May-2021 17:27:00,31.08454,-122.66372,090.0 100.0,090.0,100.0,31.000,31.218,,14.7962,,14.7969,,14.7966,32.9738,,32.9750,32.9729,,32.9748,32.9749,5.6231,,5.9467,5.9031,5.6993,,5.9627,5.9038,5.9035,245.133,258.7608,258.1346,248.453,269.8728,258.0127,258.0737,0.0423,,0.0933,0.1205,2.5847,,0.8159,,24.4551,,24.4542,,,,,,,,,,,14.7916,14.7923,0.0998,347.582,97.160,98.477,31,14.786,,,258.50,0.147,0.045,0.00,0.00,0.00,0.34,1.54
CalCOFI,2105SH,014,,2105_014d,07-May-2021 01:27:01,06-May-2021 17:27:01,31.08454,-122.66372,090.0 100.0,090.0,100.0,32.000,32.225,,14.7783,,14.7789,,14.7786,32.9750,,32.9762,32.9739,,32.9758,32.9760,5.6217,,5.9453,5.9017,5.6997,,5.9631,5.9042,5.9030,245.073,258.6981,258.0716,248.471,269.8080,258.0314,258.0515,0.0422,,0.0925,0.1202,2.5845,,0.8159,,24.4598,,24.4589,,,,,,,,,,,14.7736,14.7742,0.1033,347.156,97.103,98.450,,,,,,,,,,,,
CalCOFI,2105SH,014,,2105_014d,07-May-2021 01:27:05,06-May-2021 17:27:05,31.08454,-122.66373,090.0 100.0,090.0,100.0,33.000,33.232,,14.7679,,14.7688,,14.7684,32.9753,,32.9765,32.9746,,32.9765,32.9765,5.6045,,5.9273,5.8839,5.6986,,5.9620,5.9031,5.8935,244.321,257.9120,257.2817,248.421,268.9959,257.9795,257.6306,0.0426,,0.0955,0.1214,2.5841,,0.8159,,24.4623,,24.4616,,,,,,,,,,,14.7630,14.7639,0.1068,346.946,96.785,98.411,,,,,,,,,,,,
CalCOFI,2105SH,014,,2105_014d,07-May-2021 01:27:07,06-May-2021 17:27:07,31.08454,-122.66374,090.0 100.0,090.0,100.0,34.000,34.239,,14.7475,,14.7483,,14.7479,32.9769,,32.9781,32.9758,,32.9777,32.9779,5.6139,,5.9371,5.8936,5.7011,,5.9646,5.9057,5.8997,244.728,258.3375,257.7092,248.532,269.4354,258.0946,257.9019,0.0419,,0.0903,0.1193,2.5837,,0.8159,,24.4680,,24.4669,,,,,,,,,,,14.7425,14.7433,0.1103,346.436,96.909,98.416,,,,,,,,,,,,
CalCOFI,2105SH,014,,2105_014d,07-May-2021 01:27:08,06-May-2021 17:27:08,31.08454,-122.66374,090.0 100.0,090.0,100.0,35.000,35.246,,14.7390,,14.7397,,14.7394,32.9774,,32.9786,32.9766,,32.9785,32.9786,5.6176,,5.9410,5.8974,5.6978,,5.9612,5.9023,5.8999,244.888,258.5047,257.8773,248.387,269.6082,257.9443,257.9108,0.0419,,0.0903,0.1193,2.5835,,0.8159,,24.4702,,24.4694,,,,,,,,,,,14.7339,14.7346,0.1138,346.252,96.956,98.342,,,,,,,,,,,,
CalCOFI,2105SH,014,,2105_014d,07-May-2021 01:27:09,06-May-2021 17:27:09,31.08454,-122.66376,090.0 100.0,090.0,100.0,36.000,36.253,,14.7341,,14.7349,,14.7345,32.9780,,32.9792,32.9772,,32.9791,32.9792,5.6279,,5.9518,5.9080,5.6985,,5.9619,5.9030,5.9055,245.339,258.9762,258.3510,248.418,270.0953,257.9764,258.1637,0.0435,,0.1022,0.1241,2.5832,,0.8159,,24.4717,,24.4710,,,,,,,,,,,14.7288,14.7296,0.1173,346.138,97.126,98.345,,,,,,,,,,,,
CalCOFI,2105SH,014,,2105_014d,07-May-2021 01:27:11,06-May-2021 17:27:11,31.08454,-122.66376,090.0 100.0,090.0,100.0,37.000,37.260,,14.7294,,14.7303,,14.7299,32.9780,,32.9792,32.9773,,32.9792,32.9792,5.6394,,5.9638,5.9199,5.7014,,5.9649,5.9060,5.9130,245.837,259.4968,258.8741,248.543,270.6331,258.1060,258.4901,0.0437,,0.1037,0.1247,2.5828,,0.8159,,24.4728,,24.4720,,,,,,,,,,,14.7239,14.7249,0.1208,346.068,97.314,98.386,,,,,,,,,,,,
CalCOFI,2105SH,014,,2105_014d,07-May-2021 01:27:13,06-May-2021 17:27:13,31.08454,-122.66376,090.0 100.0,090.0,100.0,38.000,38.267,,14.7264,,14.7271,,14.7268,32.9784,,32.9796,32.9779,,32.9798,32.9797,5.6277,,5.9515,5.9078,5.7057,,5.9694,5.9103,5.9091,245.327,258.9636,258.3384,248.727,270.0823,258.2968,258.3176,0.0446,,0.1104,0.1274,2.5825,,0.8159,,24.4737,,24.4732,,,,,,,,,,,14.7208,14.7215,0.1243,346.003,97.106,98.453,,,,,,,,,,,,
CalCOFI,2105SH,014,,2105_014d,07-May-2021 01:27:15,06-May-2021 17:27:15,31.08454,-122.66378,090.0 100.0,090.0,100.0,39.000,39.274,,14.7269,,14.7277,,14.7273,32.9798,,32.9810,32.9794,,32.9813,32.9812,5.6362,,5.9604,5.9166,5.7053,,5.9689,5.9099,5.9133,245.701,259.3546,258.7313,248.712,270.4863,258.2813,258.5063,0.0454,,0.1163,0.1298,2.5827,,0.8159,,24.4748,,24.4743,,,,,,,,,,,14.7212,14.7219,0.1277,345.934,97.256,98.449,,,,,,,,,,,,
CalCOFI,2105SH,014,,2105_014d,07-May-2021 01:27:18,06-May-2021 17:27:18,31.08454,-122.66380,090.0 100.0,090.0,100.0,40.000,40.282,,14.7275,,14.7283,,14.7279,32.9833,,32.9845,32.9834,,32.9853,32.9849,5.6445,,5.9691,5.9251,5.7228,,5.9871,5.9277,5.9264,246.059,259.7289,259.1073,249.475,270.8729,259.0725,259.0899,0.0467,,0.1260,0.1337,2.5838,,0.8159,,24.4773,,24.4772,,,,,,,,,,,14.7216,14.7224,0.1312,345.719,97.401,98.755,,,,,,,,,,,,
CalCOFI,2105SH,014,,2105_014d,07-May-2021 01:27:19,06-May-2021 17:27:19,31.08452,-122.66380,090.0 100.0,090.0,100.0,41.000,41.289,,14.7269,,14.7278,,14.7274,32.9904,,32.9916,32.9897,,32.9916,32.9916,5.6516,,5.9765,5.9324,5.7438,,6.0088,5.9490,5.9407,246.370,260.0540,259.4340,250.386,271.2088,260.0173,259.7257,0.0481,,0.1364,0.1378,2.5846,,0.8159,,24.4830,,24.4823,,,,,,,,,,,14.7208,14.7218,0.1347,345.207,97.528,99.119,,,,,,,,,,,,
CalCOFI,2105SH,014,,2105_014d,07-May-2021 01:27:21,06-May-2021 17:27:21,31.08452,-122.66380,090.0 100.0,090.0,100.0,42.000,42.296,,14.6773,,14.6780,,14.6777,33.0337,,33.0349,33.0327,,33.0346,33.0348,5.6685,,5.9942,5.9498,5.7500,,6.0153,5.9553,5.9526,247.094,260.8109,260.1945,250.646,271.9907,260.2869,260.2407,0.0530,,0.1727,0.1525,2.5858,,0.8159,,24.5270,,24.5260,,,,,,,,,,,14.6711,14.6718,0.1382,341.048,97.747,99.153,,,,,,,,,,,,
CalCOFI,2105SH,014,,2105_014d,07-May-2021 01:27:23,06-May-2021 17:27:23,31.08452,-122.66380,090.0 100.0,090.0,100.0,43.000,43.303,,14.6557,,14.6564,,14.6561,33.0508,,33.0520,33.0498,,33.0517,33.0519,5.6657,,5.9913,5.9470,5.7491,,6.0143,5.9544,5.9507,246.967,260.6781,260.0611,250.605,271.8535,260.2444,260.1528,0.0593,,0.2192,0.1713,2.5879,,0.8159,,24.5448,,24.5439,,,,,,,,,,,14.6493,14.6501,0.1416,339.382,97.667,99.107,,,,,,,,,,,,
CalCOFI,2105SH,014,,2105_014d,07-May-2021 01:27:25,06-May-2021 17:27:25,31.08452,-122.66381,090.0 100.0,090.0,100.0,44.000,44.310,,14.6282,,14.6311,,14.6297,33.0540,,33.0552,33.0514,,33.0533,33.0543,5.6896,,6.0163,5.9716,5.7596,,6.0252,5.9651,5.9684,248.010,261.7685,261.1567,251.058,272.9800,260.7141,260.9354,0.0622,,0.2406,0.1799,2.5904,,0.8159,,24.5532,,24.5506,,,,,,,,,,,14.6218,14.6246,0.1450,338.610,98.028,99.237,,,,,,,,,,,,
CalCOFI,2105SH,014,,2105_014d,07-May-2021 01:27:27,06-May-2021 17:27:27,31.08452,-122.66382,090.0 100.0,090.0,100.0,45.000,45.317,,14.5622,,14.5638,,14.5630,33.0547,,33.0559,33.0514,,33.0533,33.0546,5.6947,,6.0216,5.9768,5.7773,,6.0435,5.9831,5.9800,248.227,261.9953,261.3847,251.828,273.2144,261.5127,261.4487,0.0680,,0.2832,0.1972,2.5931,,0.8159,,24.5677,,24.5648,,,,,,,,,,,14.5556,14.5572,0.1484,337.250,97.986,99.408,,,,,,,,,,,,
CalCOFI,2105SH,014,,2105_014d,07-May-2021 01:27:29,06-May-2021 17:27:29,31.08452,-122.66382,090.0 100.0,090.0,100.0,46.000,46.324,,14.5010,,14.5022,,14.5016,33.0549,,33.0561,33.0517,,33.0536,33.0549,5.7217,,6.0499,6.0046,5.7945,,6.0613,6.0006,6.0026,249.400,263.2216,262.6168,252.572,274.4812,262.2842,262.4505,0.0714,,0.3081,0.2073,2.5959,,0.8159,,24.5809,,24.5781,,,,,,,,,,,14.4943,14.4955,0.1518,336.020,98.329,99.580,,,,,,,,,,,,
CalCOFI,2105SH,014,,2105_014d,07-May-2021 01:27:30,06-May-2021 17:27:30,31.08452,-122.66384,090.0 100.0,090.0,100.0,47.000,47.332,,14.4524,,14.4529,,14.4527,33.0588,,33.0600,33.0557,,33.0576,33.0588,5.7361,,6.0649,6.0194,5.8105,,6.0779,6.0168,6.0181,250.024,263.8739,263.2723,253.268,275.1551,263.0060,263.1392,0.0754,,0.3373,0.2193,2.5979,,0.8159,,24.5942,,24.5917,,,,,,,,,,,14.4455,14.4461,0.1552,334.773,98.482,99.759,,,,,,,,,,,,
CalCOFI,2105SH,014,,2105_014d,07-May-2021 01:27:32,06-May-2021 17:27:32,31.08452,-122.66384,090.0 100.0,090.0,100.0,48.000,48.339,,14.4264,,14.4256,,14.4260,33.0619,,33.0631,33.0601,,33.0620,33.0626,5.7356,,6.0644,6.0189,5.8101,,6.0775,6.0164,6.0177,250.003,263.8519,263.2502,253.247,275.1324,262.9842,263.1172,0.0790,,0.3635,0.2300,2.5999,,0.8159,,24.6021,,24.6009,,,,,,,,,,,14.4195,14.4187,0.1585,334.053,98.425,99.699,,,,,,,,,,,,
CalCOFI,2105SH,014,,2105_014d,07-May-2021 01:27:34,06-May-2021 17:27:34,31.08452,-122.66385,090.0 100.0,090.0,100.0,49.000,49.346,,14.4233,,14.4243,,14.4238,33.0626,,33.0638,33.0613,,33.0632,33.0635,5.7268,,6.0552,6.0099,5.8082,,6.0755,6.0145,6.0122,249.616,263.4474,262.8437,253.168,274.7145,262.9023,262.8730,0.0797,,0.3686,0.2321,2.6016,,0.8159,,24.6033,,24.6021,,,,,,,,,,,14.4162,14.4171,0.1619,333.963,98.267,99.666,,,,,,,,,,,,
CalCOFI,2105SH,014,,2105_014d,07-May-2021 01:27:36,06-May-2021 17:27:36,31.08452,-122.66386,090.0 100.0,090.0,100.0,50.000,50.353,,14.4207,,14.4217,,14.4212,33.0636,,33.0648,33.0623,,33.0642,33.0645,5.7345,,6.0632,6.0178,5.8067,,6.0740,6.0129,6.0154,249.954,263.8007,263.1988,253.099,275.0795,262.8307,263.0148,0.0803,,0.3729,0.2339,2.6033,,0.8159,,24.6047,,24.6034,,,,,,,,,,,14.4135,14.4145,0.1653,333.861,98.396,99.635,,,,,,,,,,,,
CalCOFI,2105SH,014,,2105_014d,07-May-2021 01:27:39,06-May-2021 17:27:39,31.08452,-122.66386,090.0 100.0,090.0,100.0,51.000,51.360,,14.4146,,14.4145,,14.4146,33.0652,,33.0664,33.0641,,33.0660,33.0662,5.7550,,6.0847,6.0389,5.8342,,6.1025,6.0409,6.0399,250.845,264.7322,264.1347,254.297,276.0418,264.0731,264.1039,0.0806,,0.3751,0.2348,2.6059,,0.8159,,24.6072,,24.6064,,,,,,,,,,,14.4072,14.4071,0.1686,333.651,98.735,100.093,,,,,,,,,,,,
CalCOFI,2105SH,014,,2105_014d,07-May-2021 01:27:40,06-May-2021 17:27:40,31.08450,-122.66387,090.0 100.0,090.0,100.0,52.000,52.368,,14.3114,,14.3178,,14.3146,33.0841,,33.0853,33.0755,,33.0774,33.0814,5.7677,,6.0980,6.0520,5.8543,,6.1233,6.0613,6.0567,251.391,265.3030,264.7083,255.169,276.6315,264.9773,264.8428,0.0882,,0.4302,0.2575,2.6075,,0.8159,,24.6435,,24.6355,,,,,,,,,,,14.3039,14.3103,0.1720,330.217,98.759,100.250,52,14.063,,,266.85,0.548,0.129,0.04,0.027,0.00,0.35,1.54
CalCOFI,2105SH,014,,2105_014d,07-May-2021 01:27:42,06-May-2021 17:27:42,31.08450,-122.66388,090.0 100.0,090.0,100.0,53.000,53.375,,14.2337,,14.2336,,14.2337,33.0872,,33.0884,33.0844,,33.0863,33.0874,5.7600,,6.0899,6.0440,5.8728,,6.1424,6.0801,6.0621,251.049,264.9454,264.3490,255.967,276.2621,265.8049,265.0770,0.1033,,0.5388,0.3025,2.6086,,0.8159,,24.6622,,24.6600,,,,,,,,,,,14.2260,14.2260,0.1753,328.454,98.474,100.401,,,,,,,,,,,,
CalCOFI,2105SH,014,,2105_014d,07-May-2021 01:27:43,06-May-2021 17:27:43,31.08451,-122.66388,090.0 100.0,090.0,100.0,54.000,54.382,,14.2280,,14.2290,,14.2285,33.0866,,33.0878,33.0846,,33.0865,33.0872,5.7751,,6.1057,6.0596,5.8613,,6.1305,6.0684,6.0640,251.710,265.6364,265.0433,255.468,276.9760,265.2874,265.1654,0.1048,,0.5496,0.3070,2.6100,,0.8159,,24.6629,,24.6612,,,,,,,,,,,14.2202,14.2213,0.1786,328.413,98.721,100.196,,,,,,,,,,,,
CalCOFI,2105SH,014,,2105_014d,07-May-2021 01:27:46,06-May-2021 17:27:46,31.08450,-122.66388,090.0 100.0,090.0,100.0,55.000,55.389,,14.2170,,14.2193,,14.2182,33.0870,,33.0882,33.0833,,33.0852,33.0867,5.7894,,6.1207,6.0743,5.8531,,6.1220,6.0601,6.0672,252.329,266.2835,265.6936,255.106,277.6445,264.9120,265.3028,0.1053,,0.5532,0.3085,2.6116,,0.8159,,24.6656,,24.6623,,,,,,,,,,,14.2091,14.2114,0.1819,328.187,98.943,100.034,,,,,,,,,,,,